FW0019 Weather Reports


time (UTC)temp
C
wind
direction
speed
KPH
gust
KPH
rain 1hr
cm
rain 24hr
cm
rain mn
cm
humidity
%
barometer
mb
20260905173012 24 130 17.7 30.6 0.00 0.00 0.00 36 880.7
20260905171510 23 174 14.5 27.4 0.00 0.00 0.00 36 880.6
20260905170008 23 123 14.5 32.2 0.00 0.00 0.00 34 880.4
20260905164506 23 167 16.1 35.4 0.00 0.00 0.00 33 880.3
20260905163004 23 140 16.1 29.0 0.00 0.00 0.00 34 880.3
20260905161503 22 157 11.3 25.7 0.00 0.00 0.00 35 880.3
20260905154615 22 165 9.7 19.3 0.00 0.00 0.00 23 880.2
20260905153102 22 163 6.4 17.7 0.00 0.00 0.00 22 880.1
20260905151552 21 132 4.8 11.3 0.00 0.00 0.00 21 880.0
20260905150048 21 118 8.0 12.9 0.00 0.00 0.00 20 880.0
20260905144545 20 110 3.2 8.0 0.00 0.00 0.00 21 879.8
20260905143041 19 111 6.4 12.9 0.00 0.00 0.00 19 879.6
20260905141537 18 109 4.8 11.3 0.00 0.00 0.00 21 879.3
20260905140041 17 107 4.8 8.0 0.00 0.00 0.00 20 879.2
20260905134537 16 81 1.6 8.0 0.00 0.00 0.00 21 879.0
20260905133042 17 88 1.6 11.3 0.00 0.00 0.00 21 878.9
20260905131538 17 112 3.2 11.3 0.00 0.00 0.00 21 878.6
20260905130033 17 69 4.8 12.9 0.00 0.00 0.00 20 878.5
20260905124535 17 40 4.8 12.9 0.00 0.00 0.00 19 878.5
20260905123031 17 105 4.8 12.9 0.00 0.00 0.00 18 878.5
20260905121531 18 91 6.4 12.9 0.00 0.00 0.00 16 878.5
20260905120031 18 82 3.2 11.3 0.00 0.00 0.00 17 878.3
20260905114529 18 134 6.4 17.7 0.00 0.00 0.00 15 878.3
20260905113033 17 89 4.8 14.5 0.00 0.00 0.00 15 878.4
20260905111535 17 118 8.0 16.1 0.00 0.00 0.00 13 878.4
20260905110037 17 78 6.4 14.5 0.00 0.00 0.00 11 878.4
20260905104527 17 88 4.8 12.9 0.00 0.00 0.00 13 878.5
20260905103020 17 115 3.2 17.7 0.00 0.00 0.00 15 878.4
20260905101518 16 73 1.6 12.9 0.00 0.00 0.00 17 878.4
20260905100016 15 41 1.6 6.4 0.00 0.00 0.00 18 878.5
20260905094515 15 36 1.6 8.0 0.00 0.00 0.00 19 878.7
20260905093015 15 103 3.2 8.0 0.00 0.00 0.00 18 878.7
20260905091514 16 107 1.6 6.4 0.00 0.00 0.00 18 878.6
20260905090016 15 60 3.2 16.1 0.00 0.00 0.00 18 878.7
20260905084508 16 95 3.2 11.3 0.00 0.00 0.00 19 878.8
20260905083006 15 104 4.8 16.1 0.00 0.00 0.00 20 878.9
20260905081503 16 107 6.4 12.9 0.00 0.00 0.00 24 879.0
20260905080002 16 101 8.0 17.7 0.00 0.00 0.00 22 879.1
20260905074600 16 66 6.4 14.5 0.00 0.00 0.00 23 879.2
20260905073101 16 107 6.4 20.9 0.00 0.00 0.00 27 879.1
20260905071557 16 96 6.4 20.9 0.00 0.00 0.00 26 879.1
20260905070054 16 37 8.0 20.9 0.00 0.00 0.00 27 878.9
20260905064553 16 66 6.4 14.5 0.00 0.00 0.00 27 878.9
20260905063053 16 88 6.4 16.1 0.00 0.00 0.00 28 878.9
20260905061558 16 87 8.0 14.5 0.00 0.00 0.00 29 878.8
20260905060051 16 96 14.5 22.5 0.00 0.00 0.00 27 878.8
20260905054551 16 102 6.4 14.5 0.00 0.00 0.00 34 878.8
20260905053051 16 105 11.3 17.7 0.00 0.00 0.00 31 878.8
20260905051552 15 87 6.4 12.9 0.00 0.00 0.00 37 878.8
20260905050052 16 89 8.0 16.1 0.00 0.00 0.00 39 878.7
20260905044550 16 113 9.7 16.1 0.00 0.00 0.00 42 878.6
20260905043056 15 74 8.0 14.5 0.00 0.00 0.00 42 878.5
20260905041549 15 90 9.7 14.5 0.00 0.00 0.00 43 878.6
20260905040048 15 121 6.4 12.9 0.00 0.00 0.00 42 878.5
20260905034600 15 110 6.4 14.5 0.00 0.00 0.00 48 878.4
20260905033110 15 109 6.4 12.9 0.00 0.00 0.00 50 878.3
20260905031559 15 84 8.0 16.1 0.00 0.00 0.00 51 878.1
20260905030056 15 106 12.9 20.9 0.00 0.00 0.00 51 878.0
20260905024546 15 96 8.0 14.5 0.00 0.00 0.00 51 877.9
20260905023054 16 105 4.8 11.3 0.00 0.00 0.00 50 877.9
20260905021546 17 113 6.4 16.1 0.00 0.00 0.00 47 877.9
20260905020043 17 81 11.3 20.9 0.00 0.00 0.00 47 877.9
20260905014541 18 107 9.7 22.5 0.00 0.00 0.00 45 878.0
20260905013043 19 100 11.3 20.9 0.00 0.00 0.00 44 877.9
20260905011541 20 151 11.3 25.7 0.00 0.00 0.00 43 878.0
20260905010043 20 120 9.7 22.5 0.00 0.00 0.00 44 877.9
20260905004540 21 109 9.7 27.4 0.00 0.00 0.00 44 877.9
20260905003039 21 102 16.1 29.0 0.00 0.00 0.00 45 878.0
20260905001541 21 109 16.1 30.6 0.00 0.00 0.00 45 877.9
20260905000038 21 117 16.1 30.6 0.00 0.00 0.00 45 878.0
20260904234536 22 108 17.7 27.4 0.00 0.00 0.00 43 877.9
20260904233041 22 136 20.9 33.8 0.00 0.00 0.00 43 878.1
20260904231538 23 144 16.1 29.0 0.00 0.00 0.00 41 878.0
20260904230100 23 106 12.9 29.0 0.00 0.00 0.00 39 878.2
20260904224534 24 122 12.9 25.7 0.00 0.00 0.00 37 878.3
20260904223031 23 116 9.7 30.6 0.00 0.00 0.00 35 878.4
20260904221530 24 109 14.5 24.1 0.00 0.00 0.00 34 878.4
20260904220029 23 117 12.9 24.1 0.00 0.00 0.00 33 878.6
20260904214528 24 123 12.9 27.4 0.00 0.00 0.00 31 878.7
20260904213031 24 154 19.3 30.6 0.00 0.00 0.00 32 878.7
20260904211528 24 98 12.9 35.4 0.00 0.00 0.00 31 878.6
20260904210026 24 86 9.7 33.8 0.00 0.00 0.00 28 878.7
20260904204531 24 157 16.1 29.0 0.00 0.00 0.00 28 878.6
20260904203023 24 165 16.1 27.4 0.00 0.00 0.00 29 878.8
20260904201521 23 140 9.7 25.7 0.00 0.00 0.00 30 878.7
20260904200024 23 118 12.9 25.7 0.00 0.00 0.00 26 878.7
20260904194520 23 140 19.3 30.6 0.00 0.00 0.00 24 878.7
20260904193017 23 141 11.3 29.0 0.00 0.00 0.00 25 878.9
20260904191524 23 101 16.1 25.7 0.00 0.00 0.00 25 878.8
20260904190016 23 142 12.9 29.0 0.00 0.00 0.00 25 879.1
20260904184515 23 161 9.7 22.5 0.00 0.00 0.00 24 879.0
20260904183011 23 114 11.3 19.3 0.00 0.00 0.00 25 879.2
20260904181510 22 111 12.9 29.0 0.00 0.00 0.00 24 879.2
20260904180008 22 144 14.5 20.9 0.00 0.00 0.00 21 879.2
20260904174506 22 172 11.3 20.9 0.00 0.00 0.00 20 879.1